星链-5200 (STARLINK-5200 )

导读 | 星芒AI

STARLINK-5200 是 SpaceX Starlink 卫星互联网项目中的一颗低轨卫星,属于第二代 Starlink 卫星群。该卫星采用先进通信技术,提供高速、低延迟的全球互联网服务。它运行在约 550 公里的轨道高度,配备激光通信系统,以增强卫星间的数据传输能力。STARLINK-5200 有助于扩展 Starlink 的覆盖范围和网络性能,支持偏远地区的互联网接入,并为商业和军事用户提供稳定连接。

基本信息
目录编号:
54103
目录名称:
STARLINK-5200
国际标识:
2022-136BE
轨道中心:
EARTH
卫星名称:
星链-5200
卫星全名:
星链-5200 (STARLINK-5200 )
卫星状态:
在轨 (已飞行1158 天)
发射日期:
2022-10-20 UTC
国别 :
美国 (US)
星等 :
--
轨道信息
数据来源 国际轨道数据
星历时间: 2025-12-21T12:00:53+0800
7小时前
查看轨道信息
半长轴: 6917.908km
偏心率: 0.0001396
轨道倾角: 53.220°
近地点辐角 93.648°
升交点赤经 306.409°
平近点角 266.467°
近地点: 538.805km
远地点: 540.737km
周期: 95.438分钟
每日圈数: 15.08831
详细信息
固有亮度:
5
最大亮度:
2.5
卫星平台:
Starlink v1.5
覆盖范围:
全球
运营商:
太空探索技术公司
运营商所在国:
美国
制造商(研发单位):
太空探索技术公司
制造商所在国:
美国
使用方式:
暂无
卫星简介
星链(Starlink)计划是由太空探索技术公司(SpaceX)提出的一个巨型低轨卫星互联网星座项目,计划在2019年至2024年间在太空搭建由约1.2万颗卫星组成的“星链”网络,其中1584颗将部署在地球上空550千米处的近地轨道,并从2020年开始工作。该卫星仍在工作。
2D轨道图
3D轨道图
轨道高度分析图
轨道倾角分析图
轨道综合分析图
查看轨道综合分析图